[Date Prev][Date Next][Thread Prev][Thread Next] - [Date Index][Thread Index][Author Index]
MIR Keps 2-2 [ After Burn ]
- Subject: [sarex] MIR Keps 2-2 [ After Burn ]
- From: "Dr Dave Larsen [ PhD ]" <doc@xxxxxxxxxxx>
- Date: Tue, 2 Feb 1999 08:05:37 -0800
I will get updated keps this afternoon and if there is 10+ sec's diff. I will
re-post - these will update yesterday's keps by 20+ sec's
MIR
1 16609U 86017A 99033.24045226 .00018265 00000-0 14697-3 0 1762
2 16609 51.6622 315.0589 0012656 82.8465 277.3981 15.70919844740174
----
Via the sarex mailing list at AMSAT.ORG courtesy of AMSAT-NA.
To unsubscribe, send "unsubscribe sarex" to Majordomo@amsat.org
AMSAT Home